Location: Kapla
(46.2483°N, 15.0094°E)
Time: 21:12:41
(UTC+00:00)

Meteor 1-14 Rocket - Pass Details

Date: 03 March 2021
Orbit: 834 x 918 km, 81.3° (Epoch: 22 April)

Event Time Altitude Azimuth Distance (km) Brightness Sun altitude
Rises 17:37:54 0° 173° (S) 3,398 7.3 -9.2°
Reaches altitude 10° 17:40:22 10° 168° (SSE) 2,458 6.5 -9.7°
Maximum altitude 17:45:43 51° 94° (E) 1,050 4.3 -10.6°
Drops below altitude 10° 17:51:04 10° 20° (NNE) 2,456 6.4 -11.5°
Sets 17:53:32 0° 16° (NNE) 3,395 7.2 -11.9°
